Time,TemperatureF,DewpointF,PressureIn,WindDirection,WindDirectionDegrees,WindSpeedMPH,WindSpeedGustMPH,Humidity,HourlyPrecipIn,Conditions,Clouds,dailyrainin,SolarRadiationWatts/m^2,SoftwareType,DateUTC
2013-05-11 00:00:00,57.5,46.2,30.15,NNE,16,0.0,0.0,66,0.00,,---,0.00,0.00,VWS V14.01,2013-05-11 07:00:00,
2013-05-11 00:05:00,57.5,46.2,30.16,NNE,16,1.0,2.0,66,0.00,,---,0.00,0.00,VWS V14.01,2013-05-11 07:05:00,
2013-05-11 00:10:00,57.5,46.2,30.16,NNE,16,0.0,2.0,66,0.00,,---,0.00,0.00,VWS V14.01,2013-05-11 07:10:00,
2013-05-11 00:15:00,57.4,46.5,30.16,NNE,16,0.0,2.0,67,0.00,,---,0.00,0.00,VWS V14.01,2013-05-11 07:15:00,
2013-05-11 00:20:00,57.4,46.9,30.16,NNE,16,0.0,2.0,68,0.00,,---,0.00,0.00,VWS V14.01,2013-05-11 07:20:00,
2013-05-11 00:25:00,57.4,46.9,30.16,NNE,16,0.0,2.0,68,0.00,,---,0.00,0.00,VWS V14.01,2013-05-11 07:25:00,
2013-05-11 00:30:00,57.3,47.2,30.16,NNE,16,0.0,1.0,69,0.00,,---,0.00,0.00,VWS V14.01,2013-05-11 07:30:00,
2013-05-11 00:35:00,57.1,47.4,30.16,NNE,16,0.0,1.0,70,0.00,,---,0.00,0.00,VWS V14.01,2013-05-11 07:35:00,
2013-05-11 00:40:00,56.9,47.2,30.16,NNE,16,0.0,1.0,70,0.00,,---,0.00,0.00,VWS V14.01,2013-05-11 07:40:00,
2013-05-11 00:45:00,56.8,47.1,30.16,NNE,16,0.0,1.0,70,0.00,,---,0.00,0.00,VWS V14.01,2013-05-11 07:45:00,
2013-05-11 00:50:00,56.7,47.4,30.17,NNE,16,0.0,1.0,71,0.00,,---,0.00,0.00,VWS V14.01,2013-05-11 07:50:00,
2013-05-11 00:55:00,56.6,47.7,30.17,NNE,16,1.0,2.0,72,0.00,,---,0.00,0.00,VWS V14.01,2013-05-11 07:55:00,
2013-05-11 01:00:00,56.5,48.0,30.17,NNE,16,0.0,1.0,73,0.00,,---,0.00,0.00,VWS V14.01,2013-05-11 08:00:00,
2013-05-11 01:05:00,56.4,47.9,30.17,NNE,16,0.0,1.0,73,0.00,,---,0.00,0.00,VWS V14.01,2013-05-11 08:05:00,
2013-05-11 01:10:00,56.3,47.8,30.17,NNE,16,0.0,2.0,73,0.00,,---,0.00,0.00,VWS V14.01,2013-05-11 08:10:00,
2013-05-11 01:15:00,56.3,47.8,30.17,NNE,16,0.0,2.0,73,0.00,,---,0.00,0.00,VWS V14.01,2013-05-11 08:15:00,
2013-05-11 01:20:00,56.2,47.7,30.17,NNE,16,0.0,2.0,73,0.00,,---,0.00,0.00,VWS V14.01,2013-05-11 08:20:00,
2013-05-11 01:25:00,56.1,47.6,30.17,NNE,16,0.0,2.0,73,0.00,,---,0.00,0.00,VWS V14.01,2013-05-11 08:25:00,
2013-05-11 01:30:00,56.1,47.6,30.17,NNE,16,2.0,5.0,73,0.00,,---,0.00,0.00,VWS V14.01,2013-05-11 08:30:00,
2013-05-11 01:35:00,56.2,48.0,30.17,NNE,15,2.0,6.0,74,0.00,,---,0.00,0.00,VWS V14.01,2013-05-11 08:35:00,
2013-05-11 01:40:00,56.4,47.9,30.17,NNE,15,0.0,6.0,73,0.00,,---,0.00,0.00,VWS V14.01,2013-05-11 08:40:00,
2013-05-11 01:45:00,56.5,48.0,30.17,NNE,15,0.0,6.0,73,0.00,,---,0.00,0.00,VWS V14.01,2013-05-11 08:45:00,
2013-05-11 01:50:00,56.6,48.1,30.17,North,11,4.0,6.0,73,0.00,,---,0.00,0.00,VWS V14.01,2013-05-11 08:50:00,
2013-05-11 01:55:00,56.7,48.2,30.17,North,8,3.0,6.0,73,0.00,,---,0.00,0.00,VWS V14.01,2013-05-11 08:55:00,
2013-05-11 02:00:00,56.7,48.2,30.17,North,8,1.0,5.0,73,0.00,,---,0.00,0.00,VWS V14.01,2013-05-11 09:00:00,
2013-05-11 02:05:00,56.8,48.2,30.17,North,8,1.0,5.0,73,0.00,,---,0.00,0.00,VWS V14.01,2013-05-11 09:05:00,
2013-05-11 02:10:00,56.7,48.2,30.17,North,8,0.0,5.0,73,0.00,,---,0.00,0.00,VWS V14.01,2013-05-11 09:10:00,
2013-05-11 02:15:00,56.7,48.2,30.17,North,8,0.0,5.0,73,0.00,,---,0.00,0.00,VWS V14.01,2013-05-11 09:15:00,
2013-05-11 02:20:00,56.6,48.1,30.17,North,8,0.0,5.0,73,0.00,,---,0.00,0.00,VWS V14.01,2013-05-11 09:20:00,
2013-05-11 02:25:00,56.5,48.0,30.17,North,8,4.0,5.0,73,0.00,,---,0.00,0.00,VWS V14.01,2013-05-11 09:25:00,
2013-05-11 02:30:00,56.3,47.8,30.17,North,8,2.0,4.0,73,0.00,,---,0.00,0.00,VWS V14.01,2013-05-11 09:30:00,
2013-05-11 02:35:00,56.3,47.8,30.17,North,8,2.0,4.0,73,0.00,,---,0.00,0.00,VWS V14.01,2013-05-11 09:35:00,
2013-05-11 02:40:00,56.2,47.7,30.17,North,8,0.0,4.0,73,0.00,,---,0.00,0.00,VWS V14.01,2013-05-11 09:40:00,
2013-05-11 02:45:00,56.2,48.0,30.17,North,8,2.0,4.0,74,0.00,,---,0.00,0.00,VWS V14.01,2013-05-11 09:45:00,
2013-05-11 02:50:00,56.2,48.0,30.17,North,8,3.0,5.0,74,0.00,,---,0.00,0.00,VWS V14.01,2013-05-11 09:50:00,
2013-05-11 02:55:00,56.2,48.0,30.17,North,8,4.0,5.0,74,0.00,,---,0.00,0.00,VWS V14.01,2013-05-11 09:55:00,
2013-05-11 03:00:00,56.3,48.1,30.17,North,8,0.0,4.0,74,0.00,,---,0.00,0.00,VWS V14.01,2013-05-11 10:00:00,
2013-05-11 03:05:00,56.2,48.0,30.17,North,8,1.0,4.0,74,0.00,,---,0.00,0.00,VWS V14.01,2013-05-11 10:05:00,
2013-05-11 03:10:00,56.1,47.6,30.17,North,8,0.0,4.0,73,0.00,,---,0.00,0.00,VWS V14.01,2013-05-11 10:10:00,
2013-05-11 03:15:00,56.0,47.8,30.17,North,8,0.0,4.0,74,0.00,,---,0.00,0.00,VWS V14.01,2013-05-11 10:15:00,
2013-05-11 03:20:00,55.9,47.7,30.16,North,8,0.0,4.0,74,0.00,,---,0.00,0.00,VWS V14.01,2013-05-11 10:20:00,
2013-05-11 03:25:00,55.9,48.1,30.16,North,8,0.0,4.0,75,0.00,,---,0.00,0.00,VWS V14.01,2013-05-11 10:25:00,
2013-05-11 03:30:00,55.8,48.0,30.16,North,8,0.0,1.0,75,0.00,,---,0.00,0.00,VWS V14.01,2013-05-11 10:30:00,
2013-05-11 03:35:00,55.7,47.9,30.16,North,8,0.0,3.0,75,0.00,,---,0.00,0.00,VWS V14.01,2013-05-11 10:35:00,
2013-05-11 03:40:00,55.6,48.2,30.16,North,8,0.0,3.0,76,0.00,,---,0.00,0.00,VWS V14.01,2013-05-11 10:40:00,
2013-05-11 03:45:00,55.4,48.0,30.16,North,8,1.0,3.0,76,0.00,,---,0.00,0.00,VWS V14.01,2013-05-11 10:45:00,
2013-05-11 03:50:00,55.3,47.9,30.16,North,8,1.0,3.0,76,0.00,,---,0.00,0.00,VWS V14.01,2013-05-11 10:50:00,
2013-05-11 03:55:00,55.2,48.1,30.16,North,8,1.0,3.0,77,0.00,,---,0.00,0.00,VWS V14.01,2013-05-11 10:55:00,
2013-05-11 04:00:00,55.1,48.0,30.15,North,8,0.0,4.0,77,0.00,,---,0.00,0.00,VWS V14.01,2013-05-11 11:00:00,
2013-05-11 04:05:00,54.9,47.8,30.15,North,8,0.0,4.0,77,0.00,,---,0.00,0.00,VWS V14.01,2013-05-11 11:05:00,
2013-05-11 04:10:00,54.8,47.7,30.15,North,8,2.0,5.0,77,0.00,,---,0.00,0.00,VWS V14.01,2013-05-11 11:10:00,
2013-05-11 04:15:00,54.7,48.0,30.15,North,8,0.0,5.0,78,0.00,,---,0.00,0.00,VWS V14.01,2013-05-11 11:15:00,
2013-05-11 04:20:00,54.5,47.8,30.15,North,8,2.0,5.0,78,0.00,,---,0.00,0.00,VWS V14.01,2013-05-11 11:20:00,
2013-05-11 04:25:00,54.4,47.7,30.15,North,8,1.0,7.0,78,0.00,,---,0.00,0.00,VWS V14.01,2013-05-11 11:25:00,
2013-05-11 04:30:00,54.3,47.6,30.15,North,8,0.0,5.0,78,0.00,,---,0.00,0.00,VWS V14.01,2013-05-11 11:30:00,
2013-05-11 04:35:00,54.2,47.5,30.15,NNW,342,5.0,8.0,78,0.00,,---,0.00,0.00,VWS V14.01,2013-05-11 11:35:00,
2013-05-11 04:40:00,54.0,47.0,30.16,WSW,239,2.0,12.0,77,0.00,,---,0.00,0.00,VWS V14.01,2013-05-11 11:40:00,
2013-05-11 04:45:00,53.9,46.9,30.16,WSW,241,5.0,12.0,77,0.00,,---,0.00,0.00,VWS V14.01,2013-05-11 11:45:00,
2013-05-11 04:50:00,53.8,46.4,30.16,WSW,254,5.0,12.0,76,0.00,,---,0.00,0.00,VWS V14.01,2013-05-11 11:50:00,
2013-05-11 04:55:00,53.6,45.9,30.16,West,259,8.0,12.0,75,0.00,,---,0.00,0.00,VWS V14.01,2013-05-11 11:55:00,
2013-05-11 05:00:00,53.5,45.8,30.15,WSW,247,5.0,11.0,75,0.00,,---,0.00,0.00,VWS V14.01,2013-05-11 12:00:00,
2013-05-11 05:05:00,53.3,44.9,30.16,WSW,242,4.0,11.0,73,0.00,,---,0.00,0.00,VWS V14.01,2013-05-11 12:05:00,
2013-05-11 05:10:00,53.1,44.3,30.15,WSW,247,5.0,11.0,72,0.00,,---,0.00,0.00,VWS V14.01,2013-05-11 12:10:00,
2013-05-11 05:15:00,53.1,44.0,30.15,WSW,237,6.0,11.0,71,0.00,,---,0.00,0.00,VWS V14.01,2013-05-11 12:15:00,
2013-05-11 05:20:00,53.0,43.5,30.15,WSW,242,4.0,11.0,70,0.00,,---,0.00,0.00,VWS V14.01,2013-05-11 12:20:00,
2013-05-11 05:25:00,53.0,43.1,30.15,WSW,242,2.0,11.0,69,0.00,,---,0.00,0.00,VWS V14.01,2013-05-11 12:25:00,
2013-05-11 05:30:00,53.0,42.7,30.14,SW,235,6.0,7.0,68,0.00,,---,0.00,0.00,VWS V14.01,2013-05-11 12:30:00,
2013-05-11 05:35:00,53.1,42.5,30.14,SW,233,3.0,7.0,67,0.00,,---,0.00,0.00,VWS V14.01,2013-05-11 12:35:00,
2013-05-11 05:40:00,53.2,42.9,30.14,SW,233,2.0,7.0,68,0.00,,---,0.00,0.00,VWS V14.01,2013-05-11 12:40:00,
2013-05-11 05:45:00,53.2,42.9,30.14,SW,231,0.0,7.0,68,0.00,,---,0.00,0.00,VWS V14.01,2013-05-11 12:45:00,
2013-05-11 05:50:00,53.3,43.0,30.14,SW,226,5.0,8.0,68,0.00,,---,0.00,5.00,VWS V14.01,2013-05-11 12:50:00,
2013-05-11 05:55:00,53.3,42.6,30.14,SW,231,1.0,8.0,67,0.00,,---,0.00,5.00,VWS V14.01,2013-05-11 12:55:00,
2013-05-11 06:00:00,53.3,43.0,30.14,WSW,248,9.0,9.0,68,0.00,,---,0.00,7.00,VWS V14.01,2013-05-11 13:00:00,
2013-05-11 06:05:00,53.4,43.1,30.14,West,269,6.0,9.0,68,0.00,,---,0.00,7.00,VWS V14.01,2013-05-11 13:05:00,
2013-05-11 06:10:00,53.4,43.5,30.14,WSW,256,6.0,9.0,69,0.00,,---,0.00,14.00,VWS V14.01,2013-05-11 13:10:00,
2013-05-11 06:15:00,53.3,43.8,30.14,WSW,255,8.0,11.0,70,0.00,,---,0.00,12.00,VWS V14.01,2013-05-11 13:15:00,
2013-05-11 06:20:00,53.1,44.3,30.14,WSW,245,1.0,11.0,72,0.00,,---,0.00,11.00,VWS V14.01,2013-05-11 13:20:00,
2013-05-11 06:25:00,53.0,44.2,30.14,WSW,245,3.0,11.0,72,0.00,,---,0.00,19.00,VWS V14.01,2013-05-11 13:25:00,
2013-05-11 06:30:00,52.9,44.5,30.14,WSW,245,0.0,4.0,73,0.00,,---,0.00,19.00,VWS V14.01,2013-05-11 13:30:00,
2013-05-11 06:35:00,52.8,44.8,30.14,WSW,245,5.0,5.0,74,0.00,,---,0.00,28.00,VWS V14.01,2013-05-11 13:35:00,
2013-05-11 06:40:00,52.7,44.3,30.14,WSW,245,4.0,6.0,73,0.00,,---,0.00,40.00,VWS V14.01,2013-05-11 13:40:00,
2013-05-11 06:45:00,52.7,44.3,30.14,WSW,247,5.0,7.0,73,0.00,,---,0.00,42.00,VWS V14.01,2013-05-11 13:45:00,
2013-05-11 06:50:00,52.7,44.3,30.14,WSW,247,4.0,7.0,73,0.00,,---,0.00,40.00,VWS V14.01,2013-05-11 13:50:00,
2013-05-11 06:55:00,52.8,44.0,30.14,WSW,247,2.0,7.0,72,0.00,,---,0.00,42.00,VWS V14.01,2013-05-11 13:55:00,
2013-05-11 07:00:00,52.9,44.1,30.14,WSW,247,5.0,6.0,72,0.00,,---,0.00,40.00,VWS V14.01,2013-05-11 14:00:00,
2013-05-11 07:05:00,53.0,44.6,30.14,WSW,249,4.0,7.0,73,0.00,,---,0.00,42.00,VWS V14.01,2013-05-11 14:05:00,
2013-05-11 07:10:00,53.0,44.6,30.15,WSW,255,5.0,7.0,73,0.00,,---,0.00,42.00,VWS V14.01,2013-05-11 14:10:00,
2013-05-11 07:15:00,53.1,44.7,30.15,WSW,248,3.0,8.0,73,0.00,,---,0.00,40.00,VWS V14.01,2013-05-11 14:15:00,
2013-05-11 07:20:00,53.1,44.7,30.14,WSW,248,0.0,8.0,73,0.00,,---,0.00,49.00,VWS V14.01,2013-05-11 14:20:00,
2013-05-11 07:25:00,53.2,44.8,30.15,WSW,248,0.0,8.0,73,0.00,,---,0.00,47.00,VWS V14.01,2013-05-11 14:25:00,
2013-05-11 07:30:00,53.3,44.9,30.16,WSW,248,1.0,6.0,73,0.00,,---,0.00,44.00,VWS V14.01,2013-05-11 14:30:00,
2013-05-11 07:35:00,53.4,45.3,30.16,WSW,248,0.0,6.0,74,0.00,,---,0.00,62.00,VWS V14.01,2013-05-11 14:35:00,
2013-05-11 07:40:00,53.5,45.4,30.16,WSW,248,2.0,6.0,74,0.00,,---,0.00,65.00,VWS V14.01,2013-05-11 14:40:00,
2013-05-11 07:45:00,53.5,45.1,30.15,WSW,248,5.0,6.0,73,0.00,,---,0.00,74.00,VWS V14.01,2013-05-11 14:45:00,
2013-05-11 07:50:00,53.6,45.2,30.15,WSW,248,4.0,6.0,73,0.00,,---,0.00,83.00,VWS V14.01,2013-05-11 14:50:00,
2013-05-11 07:55:00,53.7,45.6,30.15,WSW,248,0.0,6.0,74,0.00,,---,0.00,88.00,VWS V14.01,2013-05-11 14:55:00,
2013-05-11 08:00:00,53.9,45.5,30.15,WSW,248,0.0,0.0,73,0.00,,---,0.00,93.00,VWS V14.01,2013-05-11 15:00:00,
2013-05-11 08:05:00,54.1,45.7,30.15,WSW,248,4.0,5.0,73,0.00,,---,0.00,113.00,VWS V14.01,2013-05-11 15:05:00,
2013-05-11 08:10:00,54.3,45.8,30.16,WSW,248,6.0,6.0,73,0.00,,---,0.00,125.00,VWS V14.01,2013-05-11 15:10:00,
2013-05-11 08:15:00,54.6,45.4,30.16,WSW,250,0.0,6.0,71,0.00,,---,0.00,120.00,VWS V14.01,2013-05-11 15:15:00,
2013-05-11 08:20:00,54.8,45.6,30.16,WSW,253,4.0,7.0,71,0.00,,---,0.00,137.00,VWS V14.01,2013-05-11 15:20:00,
2013-05-11 08:25:00,55.0,45.8,30.16,WSW,251,0.0,7.0,71,0.00,,---,0.00,125.00,VWS V14.01,2013-05-11 15:25:00,
2013-05-11 08:30:00,55.2,45.6,30.16,WSW,254,4.0,8.0,70,0.00,,---,0.00,121.00,VWS V14.01,2013-05-11 15:30:00,
2013-05-11 08:35:00,55.4,45.8,30.16,WSW,247,4.0,8.0,70,0.00,,---,0.00,141.00,VWS V14.01,2013-05-11 15:35:00,
2013-05-11 08:40:00,55.6,45.6,30.16,WSW,256,0.0,8.0,69,0.00,,---,0.00,135.00,VWS V14.01,2013-05-11 15:40:00,
2013-05-11 08:45:00,55.7,45.3,30.15,WSW,256,4.0,8.0,68,0.00,,---,0.00,135.00,VWS V14.01,2013-05-11 15:45:00,
2013-05-11 08:50:00,55.8,45.4,30.15,WSW,253,4.0,8.0,68,0.00,,---,0.00,158.00,VWS V14.01,2013-05-11 15:50:00,
2013-05-11 08:55:00,55.9,45.9,30.14,WSW,251,1.0,8.0,69,0.00,,---,0.00,193.00,VWS V14.01,2013-05-11 15:55:00,
2013-05-11 09:00:00,56.1,46.1,30.14,WSW,252,0.0,6.0,69,0.00,,---,0.00,364.00,VWS V14.01,2013-05-11 16:00:00,
2013-05-11 09:05:00,56.5,46.1,30.14,WSW,252,4.0,6.0,68,0.00,,---,0.00,264.00,VWS V14.01,2013-05-11 16:05:00,
2013-05-11 09:10:00,56.9,46.5,30.14,WSW,252,5.0,6.0,68,0.00,,---,0.00,647.00,VWS V14.01,2013-05-11 16:10:00,
2013-05-11 09:15:00,57.7,46.8,30.14,WSW,252,1.0,6.0,67,0.00,,---,0.00,533.00,VWS V14.01,2013-05-11 16:15:00,
2013-05-11 09:20:00,59.0,46.4,30.14,WSW,251,0.0,6.0,63,0.00,,---,0.00,587.00,VWS V14.01,2013-05-11 16:20:00,
2013-05-11 09:25:00,59.6,47.0,30.14,WSW,254,1.0,6.0,63,0.00,,---,0.00,243.00,VWS V14.01,2013-05-11 16:25:00,
2013-05-11 09:30:00,60.1,47.0,30.14,WSW,256,6.0,7.0,62,0.00,,---,0.00,492.00,VWS V14.01,2013-05-11 16:30:00,
2013-05-11 09:35:00,60.5,47.0,30.14,WSW,256,0.0,7.0,61,0.00,,---,0.00,397.00,VWS V14.01,2013-05-11 16:35:00,
2013-05-11 09:40:00,60.8,46.8,30.14,West,264,5.0,7.0,60,0.00,,---,0.00,385.00,VWS V14.01,2013-05-11 16:40:00,
2013-05-11 09:45:00,61.1,47.1,30.14,West,269,7.0,7.0,60,0.00,,---,0.00,510.00,VWS V14.01,2013-05-11 16:45:00,
2013-05-11 09:50:00,61.2,47.2,30.13,West,274,5.0,8.0,60,0.00,,---,0.00,570.00,VWS V14.01,2013-05-11 16:50:00,
2013-05-11 09:55:00,61.4,47.4,30.13,West,269,4.0,8.0,60,0.00,,---,0.00,540.00,VWS V14.01,2013-05-11 16:55:00,
2013-05-11 10:00:00,61.7,47.2,30.13,West,279,5.0,7.0,59,0.00,,---,0.00,338.00,VWS V14.01,2013-05-11 17:00:00,
2013-05-11 10:05:00,61.4,46.5,30.13,WNW,283,0.0,7.0,58,0.00,,---,0.00,345.00,VWS V14.01,2013-05-11 17:05:00,
2013-05-11 10:10:00,61.2,46.8,30.13,WNW,283,5.0,7.0,59,0.00,,---,0.00,330.00,VWS V14.01,2013-05-11 17:10:00,
2013-05-11 10:15:00,61.1,46.7,30.13,West,269,6.0,9.0,59,0.00,,---,0.00,366.00,VWS V14.01,2013-05-11 17:15:00,
2013-05-11 10:20:00,61.0,46.6,30.13,West,269,6.0,9.0,59,0.00,,---,0.00,269.00,VWS V14.01,2013-05-11 17:20:00,
2013-05-11 10:25:00,60.8,46.8,30.13,WNW,289,5.0,9.0,60,0.00,,---,0.00,297.00,VWS V14.01,2013-05-11 17:25:00,
2013-05-11 10:30:00,60.5,47.0,30.13,West,279,6.0,8.0,61,0.00,,---,0.00,367.00,VWS V14.01,2013-05-11 17:30:00,
2013-05-11 10:35:00,60.4,46.9,30.13,WNW,283,6.0,8.0,61,0.00,,---,0.00,427.00,VWS V14.01,2013-05-11 17:35:00,
2013-05-11 10:40:00,60.4,46.9,30.13,West,274,5.0,8.0,61,0.00,,---,0.00,439.00,VWS V14.01,2013-05-11 17:40:00,
2013-05-11 10:45:00,60.5,47.4,30.13,West,269,3.0,8.0,62,0.00,,---,0.00,510.00,VWS V14.01,2013-05-11 17:45:00,
2013-05-11 10:50:00,61.0,46.6,30.12,West,269,4.0,8.0,59,0.00,,---,0.00,606.00,VWS V14.01,2013-05-11 17:50:00,
2013-05-11 10:55:00,61.4,47.0,30.12,West,274,4.0,8.0,59,0.00,,---,0.00,455.00,VWS V14.01,2013-05-11 17:55:00,
2013-05-11 11:00:00,61.8,47.3,30.12,West,269,4.0,6.0,59,0.00,,---,0.00,408.00,VWS V14.01,2013-05-11 18:00:00,
2013-05-11 11:05:00,62.2,46.8,30.12,West,269,5.0,6.0,57,0.00,,---,0.00,373.00,VWS V14.01,2013-05-11 18:05:00,
2013-05-11 11:10:00,62.5,47.1,30.12,West,269,1.0,6.0,57,0.00,,---,0.00,288.00,VWS V14.01,2013-05-11 18:10:00,
2013-05-11 11:15:00,62.9,47.9,30.12,West,269,2.0,6.0,58,0.00,,---,0.00,341.00,VWS V14.01,2013-05-11 18:15:00,
2013-05-11 11:20:00,63.3,48.7,30.12,West,269,0.0,6.0,59,0.00,,---,0.00,272.00,VWS V14.01,2013-05-11 18:20:00,
2013-05-11 11:25:00,63.6,47.2,30.12,West,269,0.0,6.0,55,0.00,,---,0.00,399.00,VWS V14.01,2013-05-11 18:25:00,
2013-05-11 11:30:00,63.9,47.4,30.11,West,269,1.0,1.0,55,0.00,,---,0.00,536.00,VWS V14.01,2013-05-11 18:30:00,
2013-05-11 11:35:00,64.4,46.4,30.11,West,269,0.0,6.0,52,0.00,,---,0.00,682.00,VWS V14.01,2013-05-11 18:35:00,
2013-05-11 11:40:00,65.2,47.2,30.11,West,269,4.0,6.0,52,0.00,,---,0.00,656.00,VWS V14.01,2013-05-11 18:40:00,
2013-05-11 11:45:00,66.1,46.9,30.11,West,269,1.0,7.0,50,0.00,,---,0.00,691.00,VWS V14.01,2013-05-11 18:45:00,
2013-05-11 11:50:00,66.8,47.0,30.10,West,279,7.0,9.0,49,0.00,,---,0.00,575.00,VWS V14.01,2013-05-11 18:50:00,
2013-05-11 11:55:00,67.1,47.3,30.10,WNW,283,3.0,9.0,49,0.00,,---,0.00,647.00,VWS V14.01,2013-05-11 18:55:00,
2013-05-11 12:00:00,67.2,46.9,30.10,West,279,2.0,8.0,48,0.00,,---,0.00,483.00,VWS V14.01,2013-05-11 19:00:00,
2013-05-11 12:05:00,67.2,47.4,30.10,WNW,283,6.0,8.0,49,0.00,,---,0.00,675.00,VWS V14.01,2013-05-11 19:05:00,
2013-05-11 12:10:00,67.3,48.0,30.10,West,269,6.0,8.0,50,0.00,,---,0.00,696.00,VWS V14.01,2013-05-11 19:10:00,
2013-05-11 12:15:00,67.4,47.0,30.10,West,279,6.0,9.0,48,0.00,,---,0.00,534.00,VWS V14.01,2013-05-11 19:15:00,
2013-05-11 12:20:00,67.4,47.0,30.10,WNW,283,6.0,9.0,48,0.00,,---,0.00,670.00,VWS V14.01,2013-05-11 19:20:00,
2013-05-11 12:25:00,67.8,48.0,30.10,West,269,0.0,9.0,49,0.00,,---,0.00,926.00,VWS V14.01,2013-05-11 19:25:00,
2013-05-11 12:30:00,68.6,47.6,30.10,West,274,6.0,6.0,47,0.00,,---,0.00,896.00,VWS V14.01,2013-05-11 19:30:00,
2013-05-11 12:35:00,69.3,47.1,30.10,West,274,1.0,7.0,45,0.00,,---,0.00,538.00,VWS V14.01,2013-05-11 19:35:00,
2013-05-11 12:40:00,69.8,46.9,30.09,WNW,286,5.0,7.0,44,0.00,,---,0.00,638.00,VWS V14.01,2013-05-11 19:40:00,
2013-05-11 12:44:00,70.1,48.4,30.09,West,279,2.0,7.0,46,0.00,,---,0.00,527.00,VWS V14.01,2013-05-11 19:44:00,
2013-05-11 12:49:00,70.4,48.1,30.09,West,279,0.0,7.0,45,0.00,,---,0.00,272.00,VWS V14.01,2013-05-11 19:49:00,
2013-05-11 12:54:00,70.7,48.3,30.08,West,279,0.0,7.0,45,0.00,,---,0.00,223.00,VWS V14.01,2013-05-11 19:54:00,
2013-05-11 12:59:00,70.9,49.1,30.08,West,279,5.0,6.0,46,0.00,,---,0.00,220.00,VWS V14.01,2013-05-11 19:59:00,
2013-05-11 13:00:00,70.8,48.4,30.08,West,279,5.0,7.0,45,0.00,,---,0.00,214.00,VWS V14.01,2013-05-11 20:00:00,
2013-05-11 13:04:00,71.1,49.3,30.08,West,279,2.0,7.0,46,0.00,,---,0.00,202.00,VWS V14.01,2013-05-11 20:04:00,
2013-05-11 13:09:00,71.3,50.6,30.08,West,279,3.0,7.0,48,0.00,,---,0.00,262.00,VWS V14.01,2013-05-11 20:09:00,
2013-05-11 13:14:00,71.5,51.9,30.08,West,274,4.0,7.0,50,0.00,,---,0.00,172.00,VWS V14.01,2013-05-11 20:14:00,
2013-05-11 13:19:00,72.1,51.3,30.08,West,279,8.0,9.0,48,0.00,,---,0.00,134.00,VWS V14.01,2013-05-11 20:19:00,
2013-05-11 13:24:00,72.5,51.2,30.08,West,269,4.0,9.0,47,0.00,,---,0.00,134.00,VWS V14.01,2013-05-11 20:24:00,
2013-05-11 13:29:00,72.7,50.2,30.08,WNW,291,8.0,8.0,45,0.00,,---,0.00,130.00,VWS V14.01,2013-05-11 20:29:00,
2013-05-11 13:30:00,72.6,51.2,30.08,WNW,288,5.0,9.0,47,0.00,,---,0.00,125.00,VWS V14.01,2013-05-11 20:30:00,
2013-05-11 13:34:00,72.7,51.3,30.08,WNW,283,2.0,8.0,47,0.00,,---,0.00,162.00,VWS V14.01,2013-05-11 20:34:00,
2013-05-11 13:39:00,72.6,50.7,30.08,West,269,6.0,10.0,46,0.00,,---,0.00,214.00,VWS V14.01,2013-05-11 20:39:00,
2013-05-11 13:44:00,72.5,51.2,30.08,West,269,8.0,10.0,47,0.00,,---,0.00,197.00,VWS V14.01,2013-05-11 20:44:00,
2013-05-11 13:49:00,72.4,51.0,30.08,West,262,6.0,10.0,47,0.00,,---,0.00,160.00,VWS V14.01,2013-05-11 20:49:00,
2013-05-11 13:54:00,72.4,50.5,30.07,West,260,6.0,10.0,46,0.00,,---,0.00,134.00,VWS V14.01,2013-05-11 20:54:00,
2013-05-11 13:59:00,72.5,51.7,30.07,West,259,6.0,7.0,48,0.00,,---,0.00,144.00,VWS V14.01,2013-05-11 20:59:00,
2013-05-11 14:00:00,72.4,51.0,30.07,West,263,3.0,10.0,47,0.00,,---,0.00,135.00,VWS V14.01,2013-05-11 21:00:00,
2013-05-11 14:04:00,72.9,52.6,30.07,West,262,3.0,9.0,49,0.00,,---,0.00,130.00,VWS V14.01,2013-05-11 21:04:00,
2013-05-11 14:09:00,73.5,52.1,30.07,SSW,213,9.0,9.0,47,0.00,,---,0.00,104.00,VWS V14.01,2013-05-11 21:09:00,
2013-05-11 14:14:00,74.2,52.7,30.07,SW,221,7.0,9.0,47,0.00,,---,0.00,91.00,VWS V14.01,2013-05-11 21:14:00,
2013-05-11 14:19:00,75.0,52.2,30.07,West,269,5.0,10.0,45,0.00,,---,0.00,83.00,VWS V14.01,2013-05-11 21:19:00,
2013-05-11 14:24:00,75.3,51.9,30.06,WSW,258,6.0,10.0,44,0.00,,---,0.00,79.00,VWS V14.01,2013-05-11 21:24:00,
2013-05-11 14:29:00,75.7,53.5,30.06,WSW,239,4.0,8.0,46,0.00,,---,0.00,86.00,VWS V14.01,2013-05-11 21:29:00,
2013-05-11 14:30:00,75.5,52.1,30.06,WSW,258,5.0,10.0,44,0.00,,---,0.00,83.00,VWS V14.01,2013-05-11 21:30:00,
2013-05-11 14:34:00,76.0,52.5,30.06,WSW,256,5.0,8.0,44,0.00,,---,0.00,86.00,VWS V14.01,2013-05-11 21:34:00,
2013-05-11 14:39:00,76.3,52.8,30.06,WSW,248,6.0,8.0,44,0.00,,---,0.00,97.00,VWS V14.01,2013-05-11 21:39:00,
2013-05-11 14:44:00,76.4,51.6,30.06,WSW,239,6.0,8.0,42,0.00,,---,0.00,120.00,VWS V14.01,2013-05-11 21:44:00,
2013-05-11 14:49:00,76.5,53.0,30.06,West,269,5.0,10.0,44,0.00,,---,0.00,139.00,VWS V14.01,2013-05-11 21:49:00,
2013-05-11 14:54:00,76.2,51.5,30.06,West,261,4.0,10.0,42,0.00,,---,0.00,158.00,VWS V14.01,2013-05-11 21:54:00,
2013-05-11 14:59:00,76.2,52.7,30.05,West,261,1.0,6.0,44,0.00,,---,0.00,160.00,VWS V14.01,2013-05-11 21:59:00,
2013-05-11 15:00:00,76.2,52.1,30.06,West,261,6.0,10.0,43,0.00,,---,0.00,160.00,VWS V14.01,2013-05-11 22:00:00,
2013-05-11 15:04:00,76.3,53.4,30.05,WSW,243,5.0,7.0,45,0.00,,---,0.00,174.00,VWS V14.01,2013-05-11 22:04:00,
2013-05-11 15:09:00,76.5,53.0,30.05,WSW,243,1.0,7.0,44,0.00,,---,0.00,178.00,VWS V14.01,2013-05-11 22:09:00,
2013-05-11 15:14:00,76.9,52.1,30.05,SW,220,2.0,8.0,42,0.00,,---,0.00,158.00,VWS V14.01,2013-05-11 22:14:00,
2013-05-11 15:19:00,77.2,53.6,30.05,SW,223,2.0,8.0,44,0.00,,---,0.00,139.00,VWS V14.01,2013-05-11 22:19:00,
2013-05-11 15:24:00,77.5,52.0,30.05,SW,222,7.0,12.0,41,0.00,,---,0.00,120.00,VWS V14.01,2013-05-11 22:24:00,
2013-05-11 15:29:00,77.9,52.3,30.04,WSW,240,6.0,11.0,41,0.00,,---,0.00,98.00,VWS V14.01,2013-05-11 22:29:00,
2013-05-11 15:30:00,77.7,53.5,30.05,SW,229,1.0,12.0,43,0.00,,---,0.00,113.00,VWS V14.01,2013-05-11 22:30:00,
2013-05-11 15:34:00,78.1,53.8,30.04,WSW,256,5.0,12.0,43,0.00,,---,0.00,79.00,VWS V14.01,2013-05-11 22:34:00,
2013-05-11 15:39:00,78.0,52.4,30.04,SSW,197,8.0,12.0,41,0.00,,---,0.00,63.00,VWS V14.01,2013-05-11 22:39:00,
2013-05-11 15:44:00,78.0,53.1,30.04,West,261,8.0,12.0,42,0.00,,---,0.00,56.00,VWS V14.01,2013-05-11 22:44:00,
2013-05-11 15:49:00,78.0,53.1,30.03,WNW,285,4.0,12.0,42,0.00,,---,0.00,51.00,VWS V14.01,2013-05-11 22:49:00,
2013-05-11 15:54:00,78.1,53.2,30.03,SSW,211,11.0,12.0,42,0.00,,---,0.00,49.00,VWS V14.01,2013-05-11 22:54:00,
2013-05-11 15:59:00,78.2,52.6,30.03,SSW,202,9.0,10.0,41,0.00,,---,0.00,40.00,VWS V14.01,2013-05-11 22:59:00,
2013-05-11 16:00:00,78.2,52.6,30.03,SSW,210,3.0,12.0,41,0.00,,---,0.00,49.00,VWS V14.01,2013-05-11 23:00:00,
2013-05-11 16:04:00,78.4,53.4,30.03,WSW,245,7.0,10.0,42,0.00,,---,0.00,49.00,VWS V14.01,2013-05-11 23:04:00,
2013-05-11 16:09:00,78.7,53.7,30.03,SW,234,3.0,10.0,42,0.00,,---,0.00,54.00,VWS V14.01,2013-05-11 23:09:00,
2013-05-11 16:14:00,78.8,53.1,30.02,WSW,244,4.0,12.0,41,0.00,,---,0.00,56.00,VWS V14.01,2013-05-11 23:14:00,
2013-05-11 16:19:00,79.0,52.6,30.02,WSW,243,8.0,13.0,40,0.00,,---,0.00,49.00,VWS V14.01,2013-05-11 23:19:00,
2013-05-11 16:24:00,79.1,53.4,30.02,WSW,258,5.0,13.0,41,0.00,,---,0.00,56.00,VWS V14.01,2013-05-11 23:24:00,
2013-05-11 16:29:00,79.2,52.8,30.02,SW,235,9.0,12.0,40,0.00,,---,0.00,54.00,VWS V14.01,2013-05-11 23:29:00,
2013-05-11 16:30:00,79.1,53.4,30.02,WSW,241,2.0,13.0,41,0.00,,---,0.00,51.00,VWS V14.01,2013-05-11 23:30:00,
2013-05-11 16:34:00,79.3,52.9,30.02,WSW,250,2.0,12.0,40,0.00,,---,0.00,58.00,VWS V14.01,2013-05-11 23:34:00,
2013-05-11 16:39:00,79.4,52.3,30.02,SSW,198,5.0,12.0,39,0.00,,---,0.00,49.00,VWS V14.01,2013-05-11 23:39:00,
2013-05-11 16:44:00,79.4,53.0,30.01,SSW,204,0.0,12.0,40,0.00,,---,0.00,37.00,VWS V14.01,2013-05-11 23:44:00,
2013-05-11 16:49:00,79.3,52.9,30.01,WSW,249,7.0,12.0,40,0.00,,---,0.00,63.00,VWS V14.01,2013-05-11 23:49:00,
2013-05-11 16:54:00,79.1,52.0,30.01,SW,227,2.0,12.0,39,0.00,,---,0.00,95.00,VWS V14.01,2013-05-11 23:54:00,
2013-05-11 16:59:00,79.0,52.6,30.01,SSW,212,5.0,11.0,40,0.00,,---,0.00,63.00,VWS V14.01,2013-05-11 23:59:00,
2013-05-11 17:00:00,79.0,53.3,30.01,SW,223,6.0,12.0,41,0.00,,---,0.00,88.00,VWS V14.01,2013-05-12 00:00:00,
2013-05-11 17:04:00,78.9,52.5,30.01,SW,227,1.0,11.0,40,0.00,,---,0.00,47.00,VWS V14.01,2013-05-12 00:04:00,
2013-05-11 17:09:00,78.7,52.4,30.01,SW,227,4.0,11.0,40,0.00,,---,0.00,76.00,VWS V14.01,2013-05-12 00:09:00,
2013-05-11 17:14:00,78.7,53.0,30.01,South,189,5.0,11.0,41,0.00,,---,0.00,105.00,VWS V14.01,2013-05-12 00:14:00,
2013-05-11 17:19:00,78.7,53.0,30.00,SW,224,6.0,11.0,41,0.00,,---,0.00,56.00,VWS V14.01,2013-05-12 00:19:00,
2013-05-11 17:24:00,78.7,53.0,30.00,SW,222,5.0,11.0,41,0.00,,---,0.00,37.00,VWS V14.01,2013-05-12 00:24:00,
2013-05-11 17:29:00,78.7,52.4,30.00,SSW,207,1.0,8.0,40,0.00,,---,0.00,44.00,VWS V14.01,2013-05-12 00:29:00,
2013-05-11 17:30:00,78.7,53.0,30.00,SSW,206,5.0,11.0,41,0.00,,---,0.00,42.00,VWS V14.01,2013-05-12 00:30:00,
2013-05-11 17:34:00,78.5,53.5,30.00,SW,220,5.0,8.0,42,0.00,,---,0.00,62.00,VWS V14.01,2013-05-12 00:34:00,
2013-05-11 17:39:00,78.4,54.7,30.00,SW,235,3.0,8.0,44,0.00,,---,0.00,83.00,VWS V14.01,2013-05-12 00:39:00,
2013-05-11 17:44:00,78.6,54.3,30.00,WSW,242,1.0,8.0,43,0.00,,---,0.00,93.00,VWS V14.01,2013-05-12 00:44:00,
2013-05-11 17:49:00,78.7,53.0,30.00,SW,223,4.0,8.0,41,0.00,,---,0.00,69.00,VWS V14.01,2013-05-12 00:49:00,
2013-05-11 17:54:00,78.6,53.6,30.00,West,274,5.0,8.0,42,0.00,,---,0.00,51.00,VWS V14.01,2013-05-12 00:54:00,
2013-05-11 17:59:00,78.4,53.4,30.00,WSW,248,4.0,9.0,42,0.00,,---,0.00,63.00,VWS V14.01,2013-05-12 00:59:00,
2013-05-11 18:00:00,78.5,54.2,30.00,WSW,256,2.0,8.0,43,0.00,,---,0.00,51.00,VWS V14.01,2013-05-12 01:00:00,
2013-05-11 18:04:00,78.3,53.3,30.00,WSW,248,6.0,10.0,42,0.00,,---,0.00,70.00,VWS V14.01,2013-05-12 01:04:00,
2013-05-11 18:09:00,78.3,52.7,30.00,WSW,237,4.0,11.0,41,0.00,,---,0.00,35.00,VWS V14.01,2013-05-12 01:09:00,
2013-05-11 18:14:00,78.2,53.2,30.00,WSW,239,0.0,11.0,42,0.00,,---,0.00,30.00,VWS V14.01,2013-05-12 01:14:00,
2013-05-11 18:19:00,78.0,52.4,30.00,West,269,5.0,11.0,41,0.00,,---,0.00,28.00,VWS V14.01,2013-05-12 01:19:00,
2013-05-11 18:24:00,77.6,52.7,30.00,North,352,4.0,11.0,42,0.00,,---,0.00,33.00,VWS V14.01,2013-05-12 01:24:00,
2013-05-11 18:29:00,76.9,52.7,29.99,North,350,5.0,6.0,43,0.00,,---,0.00,44.00,VWS V14.01,2013-05-12 01:29:00,
2013-05-11 18:30:00,77.4,53.2,30.00,North,356,5.0,11.0,43,0.00,,---,0.00,39.00,VWS V14.01,2013-05-12 01:30:00,
2013-05-11 18:34:00,75.9,53.1,29.99,North,357,0.0,6.0,45,0.00,,---,0.00,53.00,VWS V14.01,2013-05-12 01:34:00,
2013-05-11 18:39:00,75.0,53.4,29.99,North,357,4.0,6.0,47,0.00,,---,0.00,62.00,VWS V14.01,2013-05-12 01:39:00,
2013-05-11 18:44:00,74.2,52.7,29.99,NNW,345,3.0,8.0,47,0.00,,---,0.00,47.00,VWS V14.01,2013-05-12 01:44:00,
2013-05-11 18:49:00,73.1,51.7,29.99,NNW,345,5.0,12.0,47,0.00,,---,0.00,37.00,VWS V14.01,2013-05-12 01:49:00,
2013-05-11 18:54:00,72.1,50.8,29.99,North,2,4.0,12.0,47,0.00,,---,0.00,32.00,VWS V14.01,2013-05-12 01:54:00,
2013-05-11 18:59:00,71.2,51.1,29.99,NNE,13,5.0,6.0,49,0.00,,---,0.00,25.00,VWS V14.01,2013-05-12 01:59:00,
2013-05-11 19:00:00,71.6,50.9,29.99,North,8,4.0,12.0,48,0.00,,---,0.00,28.00,VWS V14.01,2013-05-12 02:00:00,
2013-05-11 19:04:00,70.4,50.9,29.99,NNE,15,0.0,7.0,50,0.00,,---,0.00,21.00,VWS V14.01,2013-05-12 02:04:00,
2013-05-11 19:09:00,69.7,50.2,29.99,North,4,4.0,7.0,50,0.00,,---,0.00,19.00,VWS V14.01,2013-05-12 02:09:00,
2013-05-11 19:14:00,69.2,50.3,29.99,North,2,5.0,7.0,51,0.00,,---,0.00,19.00,VWS V14.01,2013-05-12 02:14:00,
2013-05-11 19:19:00,68.7,50.4,29.99,North,9,4.0,7.0,52,0.00,,---,0.00,19.00,VWS V14.01,2013-05-12 02:19:00,
2013-05-11 19:24:00,68.2,50.4,29.99,North,10,3.0,7.0,53,0.00,,---,0.00,18.00,VWS V14.01,2013-05-12 02:24:00,
2013-05-11 19:29:00,67.7,49.5,29.99,NNE,13,1.0,6.0,52,0.00,,---,0.00,16.00,VWS V14.01,2013-05-12 02:29:00,
2013-05-11 19:30:00,67.9,50.2,29.99,North,11,1.0,7.0,53,0.00,,---,0.00,18.00,VWS V14.01,2013-05-12 02:30:00,
2013-05-11 19:34:00,67.3,50.1,29.99,NNE,13,2.0,6.0,54,0.00,,---,0.00,18.00,VWS V14.01,2013-05-12 02:34:00,
2013-05-11 19:39:00,66.9,49.2,29.99,NNE,18,2.0,8.0,53,0.00,,---,0.00,19.00,VWS V14.01,2013-05-12 02:39:00,
2013-05-11 19:44:00,66.5,48.9,29.99,NNE,21,0.0,8.0,53,0.00,,---,0.00,25.00,VWS V14.01,2013-05-12 02:44:00,
2013-05-11 19:49:00,66.1,48.0,29.99,NE,35,3.0,8.0,52,0.00,,---,0.00,25.00,VWS V14.01,2013-05-12 02:49:00,
2013-05-11 19:54:00,65.8,48.2,29.99,NE,37,1.0,8.0,53,0.00,,---,0.00,25.00,VWS V14.01,2013-05-12 02:54:00,
2013-05-11 19:59:00,65.5,47.9,29.99,NNE,29,3.0,4.0,53,0.00,,---,0.00,19.00,VWS V14.01,2013-05-12 02:59:00,
2013-05-11 20:00:00,65.6,47.5,29.99,NNE,29,2.0,8.0,52,0.00,,---,0.00,23.00,VWS V14.01,2013-05-12 03:00:00,
2013-05-11 20:04:00,65.2,47.7,29.99,NNE,27,0.0,4.0,53,0.00,,---,0.00,12.00,VWS V14.01,2013-05-12 03:04:00,
2013-05-11 20:09:00,64.9,47.4,29.99,NNE,28,0.0,5.0,53,0.00,,---,0.00,9.00,VWS V14.01,2013-05-12 03:09:00,
2013-05-11 20:14:00,64.6,47.1,29.99,NNE,28,0.0,5.0,53,0.00,,---,0.00,7.00,VWS V14.01,2013-05-12 03:14:00,
2013-05-11 20:19:00,64.3,46.8,29.99,NNE,28,0.0,5.0,53,0.00,,---,0.00,5.00,VWS V14.01,2013-05-12 03:19:00,
2013-05-11 20:24:00,64.1,47.1,29.98,NNE,28,0.0,5.0,54,0.00,,---,0.00,0.00,VWS V14.01,2013-05-12 03:24:00,
2013-05-11 20:29:00,63.9,47.4,29.98,NNE,28,1.0,2.0,55,0.00,,---,0.00,0.00,VWS V14.01,2013-05-12 03:29:00,
2013-05-11 20:30:00,64.0,47.0,29.98,NNE,28,0.0,5.0,54,0.00,,---,0.00,0.00,VWS V14.01,2013-05-12 03:30:00,
2013-05-11 20:34:00,63.7,46.8,29.99,NNE,28,0.0,4.0,54,0.00,,---,0.00,0.00,VWS V14.01,2013-05-12 03:34:00,
2013-05-11 20:39:00,63.5,47.1,29.99,NNE,28,0.0,4.0,55,0.00,,---,0.00,0.00,VWS V14.01,2013-05-12 03:39:00,
2013-05-11 20:44:00,63.3,46.9,29.99,NNE,28,0.0,4.0,55,0.00,,---,0.00,0.00,VWS V14.01,2013-05-12 03:44:00,
2013-05-11 20:49:00,63.1,47.2,30.00,NNE,28,0.0,4.0,56,0.00,,---,0.00,0.00,VWS V14.01,2013-05-12 03:49:00,
2013-05-11 20:54:00,63.0,47.5,30.00,NNE,28,0.0,4.0,57,0.00,,---,0.00,0.00,VWS V14.01,2013-05-12 03:54:00,
2013-05-11 20:59:00,62.9,47.9,30.01,NNE,28,0.0,1.0,58,0.00,,---,0.00,0.00,VWS V14.01,2013-05-12 03:59:00,
2013-05-11 21:00:00,62.9,47.9,30.00,NNE,28,0.0,4.0,58,0.00,,---,0.00,0.00,VWS V14.01,2013-05-12 04:00:00,
2013-05-11 21:01:00,62.9,47.9,30.01,NNE,28,0.0,1.0,58,0.00,,---,0.00,0.00,VWS V14.01,2013-05-12 04:01:00,
2013-05-11 21:06:00,62.7,47.7,30.01,North,2,2.0,7.0,58,0.00,,---,0.00,0.00,VWS V14.01,2013-05-12 04:06:00,
2013-05-11 21:11:00,62.6,47.6,30.01,North,353,0.0,7.0,58,0.00,,---,0.00,0.00,VWS V14.01,2013-05-12 04:11:00,
2013-05-11 21:16:00,62.4,47.5,30.02,North,352,5.0,7.0,58,0.00,,---,0.00,0.00,VWS V14.01,2013-05-12 04:16:00,
2013-05-11 21:21:00,62.2,48.2,30.01,North,353,4.0,7.0,60,0.00,,---,0.00,0.00,VWS V14.01,2013-05-12 04:21:00,
2013-05-11 21:26:00,61.9,48.3,30.01,North,354,0.0,7.0,61,0.00,,---,0.00,0.00,VWS V14.01,2013-05-12 04:26:00,
2013-05-11 21:30:00,61.9,48.3,30.01,North,354,2.0,7.0,61,0.00,,---,0.00,0.00,VWS V14.01,2013-05-12 04:30:00,
2013-05-11 21:31:00,61.7,48.1,30.01,North,354,1.0,4.0,61,0.00,,---,0.00,0.00,VWS V14.01,2013-05-12 04:31:00,
2013-05-11 21:36:00,61.6,48.5,30.02,North,355,1.0,5.0,62,0.00,,---,0.00,0.00,VWS V14.01,2013-05-12 04:36:00,
2013-05-11 21:41:00,61.4,48.7,30.02,North,357,2.0,5.0,63,0.00,,---,0.00,0.00,VWS V14.01,2013-05-12 04:41:00,
2013-05-11 21:46:00,61.3,49.0,30.02,North,357,2.0,5.0,64,0.00,,---,0.00,0.00,VWS V14.01,2013-05-12 04:46:00,
2013-05-11 21:51:00,61.1,48.8,30.03,North,360,2.0,6.0,64,0.00,,---,0.00,0.00,VWS V14.01,2013-05-12 04:51:00,
2013-05-11 21:56:00,61.0,49.2,30.02,NNE,27,4.0,7.0,65,0.00,,---,0.00,0.00,VWS V14.01,2013-05-12 04:56:00,
2013-05-11 22:00:00,61.0,49.2,30.02,NNE,27,0.0,7.0,65,0.00,,---,0.00,0.00,VWS V14.01,2013-05-12 05:00:00,
2013-05-11 22:01:00,60.9,49.1,30.03,NNE,27,2.0,6.0,65,0.00,,---,0.00,0.00,VWS V14.01,2013-05-12 05:01:00,
2013-05-11 22:06:00,60.8,49.0,30.03,NNE,27,1.0,6.0,65,0.00,,---,0.00,0.00,VWS V14.01,2013-05-12 05:06:00,
2013-05-11 22:11:00,60.8,49.4,30.03,NNE,27,2.0,6.0,66,0.00,,---,0.00,0.00,VWS V14.01,2013-05-12 05:11:00,
2013-05-11 22:16:00,60.8,49.0,30.03,NNE,25,2.0,6.0,65,0.00,,---,0.00,0.00,VWS V14.01,2013-05-12 05:16:00,
2013-05-11 22:21:00,60.8,48.6,30.02,NE,40,5.0,7.0,64,0.00,,---,0.00,0.00,VWS V14.01,2013-05-12 05:21:00,
2013-05-11 22:26:00,60.9,48.7,30.02,NE,40,0.0,7.0,64,0.00,,---,0.00,0.00,VWS V14.01,2013-05-12 05:26:00,
2013-05-11 22:30:00,60.9,48.7,30.02,NE,40,0.0,7.0,64,0.00,,---,0.00,0.00,VWS V14.01,2013-05-12 05:30:00,
2013-05-11 22:31:00,60.9,48.7,30.03,NE,40,0.0,4.0,64,0.00,,---,0.00,0.00,VWS V14.01,2013-05-12 05:31:00,
2013-05-11 22:36:00,61.0,48.8,30.03,NE,40,0.0,5.0,64,0.00,,---,0.00,0.00,VWS V14.01,2013-05-12 05:36:00,
2013-05-11 22:41:00,60.9,48.7,30.03,NE,40,0.0,5.0,64,0.00,,---,0.00,0.00,VWS V14.01,2013-05-12 05:41:00,
2013-05-11 22:46:00,60.9,49.1,30.03,NE,40,0.0,5.0,65,0.00,,---,0.00,0.00,VWS V14.01,2013-05-12 05:46:00,
2013-05-11 22:51:00,60.9,49.1,30.03,NE,40,0.0,5.0,65,0.00,,---,0.00,0.00,VWS V14.01,2013-05-12 05:51:00,
2013-05-11 22:56:00,60.8,49.4,30.02,NE,40,0.0,5.0,66,0.00,,---,0.00,0.00,VWS V14.01,2013-05-12 05:56:00,
2013-05-11 23:00:00,60.8,49.4,30.02,NE,40,0.0,5.0,66,0.00,,---,0.00,0.00,VWS V14.01,2013-05-12 06:00:00,
2013-05-11 23:01:00,60.7,49.3,30.02,NE,40,0.0,1.0,66,0.00,,---,0.00,0.00,VWS V14.01,2013-05-12 06:01:00,
2013-05-11 23:06:00,60.5,49.5,30.02,NE,40,0.0,1.0,67,0.00,,---,0.00,0.00,VWS V14.01,2013-05-12 06:06:00,
2013-05-11 23:11:00,60.4,49.4,30.02,NE,40,0.0,1.0,67,0.00,,---,0.00,0.00,VWS V14.01,2013-05-12 06:11:00,
2013-05-11 23:16:00,60.3,49.7,30.02,NE,40,0.0,1.0,68,0.00,,---,0.00,0.00,VWS V14.01,2013-05-12 06:16:00,
2013-05-11 23:21:00,60.1,49.5,30.02,NE,40,0.0,1.0,68,0.00,,---,0.00,0.00,VWS V14.01,2013-05-12 06:21:00,
2013-05-11 23:26:00,60.0,49.8,30.02,NE,40,0.0,1.0,69,0.00,,---,0.00,0.00,VWS V14.01,2013-05-12 06:26:00,
2013-05-11 23:30:00,59.9,49.7,30.02,NE,40,0.0,1.0,69,0.00,,---,0.00,0.00,VWS V14.01,2013-05-12 06:30:00,
2013-05-11 23:31:00,59.8,49.6,30.01,NE,40,0.0,0.0,69,0.00,,---,0.00,0.00,VWS V14.01,2013-05-12 06:31:00,
2013-05-11 23:36:00,59.7,49.5,30.01,NE,40,0.0,0.0,69,0.00,,---,0.00,0.00,VWS V14.01,2013-05-12 06:36:00,
2013-05-11 23:41:00,59.6,49.8,30.02,NE,40,0.0,1.0,70,0.00,,---,0.00,0.00,VWS V14.01,2013-05-12 06:41:00,
2013-05-11 23:46:00,59.4,49.2,30.02,NE,40,0.0,1.0,69,0.00,,---,0.00,0.00,VWS V14.01,2013-05-12 06:46:00,
2013-05-11 23:50:00,59.4,49.6,30.03,NNE,29,2.0,5.0,70,0.00,,---,0.00,0.00,VWS V14.01,2013-05-12 06:50:00,
2013-05-11 23:55:00,59.5,49.7,30.03,NNE,29,0.0,5.0,70,0.00,,---,0.00,0.00,VWS V14.01,2013-05-12 06:55:00,